[[{"header":{"parameterUnit":"m.s-1","parameterCategory":2,"la1":30.2991,"la2":30.254,"lo1":-89.0895,"lo2":-89.0444,"dy":0.0017,"dx":0.0017,"nx":28,"ny":28,"refTime":"2024-07-31T03:00:00:Z","depth":"0","parameterNumber":2,"parameterNumberName":"U-component_of_CURRENTS"},"data":[0,0,0,0,0,0,0,0,0,0,0,0,0,0,0,0,0,0,0,0,0,0,0,0,0,0,0,0,0,0,0,0,0,0,0,0,0,0,0,0,0,0,0,0,0,0,0,0,0,0,0,0,0,0,0,0,0,0,0.3193,0.3195,0,0.3361,0.3363,0.3364,0.3391,0.339,0.3389,0.3387,0.3414,0.3416,0.3417,0,0,0,0,0,0,0,0,0,0,0,0,0,0.3039,0.3041,0.3193,0.3195,0.3197,0.3361,0.3363,0.3365,0.3392,0.339,0.3388,0.3387,0.3413,0.3415,0.3418,0,0,0,0,0,0,0,0,0,0,0,0,0,0.3144,0.3041,0.3192,0.3232,0.3237,0.336,0.3363,0.3365,0.3392,0.339,0.3388,0.3386,0.3412,0.3415,0.3418,0.3475,0,0,0.3427,0.3428,0,0,0,0,0,0,0,0,0.3138,0.315,0.3224,0.3229,0.3235,0.3355,0.3319,0.3396,0.3392,0.3331,0.3387,0.3385,0.3383,0.3389,0.3424,0.3476,0.3478,0.3427,0.3429,0.343,0.3431,0,0,0,0,0,0,0,0.3131,0.3144,0.3257,0.3226,0.3233,0.3291,0.3302,0.3335,0.3362,0.3336,0.3339,0.3361,0.3385,0.3421,0.3424,0.3478,0.3427,0.3429,0.3431,0.3432,0.3538,0.3539,0,0,0,0,0,0,0.3109,0.3136,0.3252,0.3263,0.3183,0.3294,0.3307,0.3317,0.3365,0.3372,0.3363,0.3362,0.3417,0.3421,0.3425,0.3439,0.343,0.3433,0.3434,0.3536,0.3538,0.3539,0,0,0,0,0,0,0.3104,0.3117,0.3245,0.3205,0.3226,0.3298,0.331,0.3321,0.336,0.3387,0.3391,0.339,0.3416,0.3421,0.3417,0.3441,0.3434,0.3437,0.3535,0.3537,0.3538,0.3501,0,0,0,0,0,0,0.3099,0.3114,0.3117,0.3203,0.3227,0.3327,0.3312,0.3326,0.3378,0.3378,0.3412,0.3412,0.3415,0.3412,0.342,0.3445,0.3439,0.3534,0.3536,0.3538,0.3501,0.3501,0.3502,0,0,0,0,0,0.3093,0.3102,0.3115,0.313,0.3227,0.3329,0.3347,0.3391,0.3381,0.3414,0.3394,0.3411,0.3432,0.3414,0.3423,0.345,0.3533,0.3535,0.3538,0.3501,0.3501,0.3501,0,0,0,0,0,0,0.3035,0.3109,0.3124,0.3154,0.3239,0.3334,0.3366,0.34,0.3421,0.3399,0.3409,0.3409,0.3423,0.3444,0.3425,0.349,0.3494,0.3498,0.3463,0.3464,0.3464,0.3515,0.3441,0,0,0,0,0,0.3025,0.3049,0.3142,0.3168,0.3206,0.3288,0.3333,0.3368,0.3402,0.3412,0.3428,0.3437,0.3448,0.3454,0.3475,0.3505,0.355,0.3536,0.3536,0.3536,0.3586,0.3677,0.3691,0.3547,0.3547,0.3547,0,0,0.3011,0.3054,0.3068,0.3158,0.3218,0.3296,0.331,0.338,0.3431,0.3409,0.3449,0.3439,0.3455,0.3474,0.3486,0.3488,0.3583,0.3539,0.3538,0.359,0.3681,0.3696,0.3708,0.3548,0.3548,0.3548,0,0,0.3005,0.3034,0.306,0.3135,0.3229,0.3295,0.3318,0.3411,0.3435,0.348,0.3458,0.346,0.35,0.3507,0.3517,0.3544,0.3581,0.3548,0.3592,0.3677,0.3691,0.3703,0.3701,0.3714,0.3549,0.3549,0.3549,0,0.2985,0.3039,0.3089,0.3148,0.3218,0.3296,0.3367,0.3419,0.3492,0.3499,0.3488,0.3529,0.3532,0.3554,0.3555,0.3549,0.3575,0.3575,0.3678,0.3692,0.3706,0.3702,0.3717,0.3547,0.3548,0.3548,0.3548,0,0.3015,0.307,0.3099,0.3199,0.3274,0.3355,0.3441,0.3484,0.3516,0.3556,0.3583,0.3583,0.3609,0.3606,0.3589,0.3671,0.3645,0.3662,0.3674,0.3718,0.371,0.3726,0.3545,0.3546,0.3546,0.3547,0,0,0.2958,0.3094,0.3106,0.3175,0.3314,0.3386,0.3453,0.3549,0.3578,0.3627,0.3668,0.3685,0.3677,0.3691,0.3668,0.3743,0.3816,0.3745,0.375,0.3737,0.395,0.364,0.3627,0.385,0.3855,0.3858,0.3877,0,0.2984,0.3095,0.3157,0.329,0.3378,0.3459,0.3526,0.3597,0.364,0.3687,0.3698,0.373,0.3712,0.3707,0.3779,0.381,0.3871,0.3806,0.392,0.3923,0.3638,0.3642,0.3411,0.3385,0.3893,0.3896,0.3898,0,0.3007,0.3092,0.321,0.3359,0.3399,0.3474,0.3586,0.3652,0.3711,0.3732,0.3761,0.3768,0.383,0.3837,0.3948,0.3904,0.3948,0.3983,0.3984,0.374,0.3645,0.3443,0.3396,0.3326,0.3923,0.3921,0.3919,0,0.2982,0.3133,0.3231,0.3291,0.3457,0.3497,0.3576,0.365,0.3692,0.3758,0.3784,0.3846,0.3859,0.3975,0.3985,0.4,0.4104,0.4129,0.3892,0.3867,0.3719,0.3672,0.3624,0.4271,0.4271,0.4271,0.4271,0,0.3015,0.3097,0.3223,0.3291,0.3399,0.3493,0.3578,0.3642,0.3709,0.3735,0.3802,0.3805,0.3912,0.394,0.4011,0.3936,0.4117,0.3905,0.3867,0.3682,0.3634,0.3605,0.3611,0.4272,0.4272,0.4272,0.4272,0,0.2999,0.308,0.3207,0.3355,0.34,0.3472,0.3596,0.3637,0.3704,0.374,0.3763,0.3791,0.3776,0.3828,0.394,0.3888,0.3768,0.386,0.3562,0.3486,0.3132,0.3143,0.2951,0.2896,0.3604,0.3597,0.3591,0,0.3008,0.307,0.3232,0.3297,0.3371,0.3477,0.3538,0.3631,0.365,0.3695,0.369,0.3668,0.3572,0.354,0.3472,0.3455,0.3487,0.3226,0.3218,0.3063,0.3057,0.298,0.2949,0.3005,0.2994,0.2986,0.2979,0,0.3044,0.3088,0.3192,0.3304,0.3385,0.3452,0.3522,0.3525,0.358,0.3583,0.3482,0.3401,0.3259,0.3028,0.294,0.2938,0.2998,0.3037,0.3029,0.2685,0.2465,0.2406,0.2996,0.2902,0.291,0.2915,0.292,0.2923,0.3057,0.3114,0.3218,0.3308,0.3383,0.3361,0.3317,0.3335,0.3295,0.3158,0.3224,0.2983,0.2767,0.2543,0.2509,0.2258,0.2407,0.2205,0.2263,0.2222,0.206,0.2386,0.2139,0.2142,0.2144,0.2147,0.2149,0,0.3043,0.31,0.3206,0.3258,0.3242,0.3295,0.325,0.3112,0.2936,0.2846,0.2709,0.2379,0.2109,0.1962,0.1701,0.1568,0.1582,0.1529,0.1496,0.1541,0.1969,0.1832,0.1321,0.1321,0.1321,0.1321,0.1321,0.1321,0.3046,0.3095,0.3125,0.308,0.3075,0.2923,0.2817,0.2626,0.2487,0.2133,0.1873,0.1791,0.1636,0.139,0.1176,0.1146,0.1158,0.0935,0.1107,0.1522,0.1595,0.1665,0.154,0.0976,0.0976,0.0587,0.0585,0.0582]},{"header":{"parameterUnit":"m.s-1","parameterCategory":2,"la1":30.2991,"la2":30.254,"lo1":-89.0895,"lo2":-89.0444,"dy":0.0017,"dx":0.0017,"nx":28,"ny":28,"refTime":"2024-07-31T03:00:00:Z","depth":"0","parameterNumber":3,"parameterNumberName":"V-component_of_CURRENTS"},"data":[0,0,0,0,0,0,0,0,0,0,0,0,0,0,0,0,0,0,0,0,0,0,0,0,0,0,0,0,0,0,0,0,0,0,0,0,0,0,0,0,0,0,0,0,0,0,0,0,0,0,0,0,0,0,0,0,0,0,0.0407,0.0407,0,0.0417,0.0417,0.0416,0.0394,0.0393,0.0393,0.0392,0.0435,0.0436,0.0438,0,0,0,0,0,0,0,0,0,0,0,0,0,0.0367,0.0367,0.0407,0.0407,0.0407,0.0417,0.0417,0.0416,0.0394,0.0393,0.0393,0.0392,0.0434,0.0436,0.0438,0,0,0,0,0,0,0,0,0,0,0,0,0,0.0379,0.0368,0.0407,0.0399,0.0398,0.0417,0.0417,0.0416,0.0394,0.0393,0.0393,0.0392,0.0434,0.0436,0.0438,0.0469,0,0,0.0446,0.0447,0,0,0,0,0,0,0,0,0.0378,0.038,0.04,0.0399,0.0399,0.0405,0.0418,0.0437,0.0394,0.0393,0.0392,0.0391,0.043,0.0433,0.0433,0.0471,0.0473,0.0446,0.0448,0.0449,0.0449,0,0,0,0,0,0,0,0.0378,0.038,0.0408,0.04,0.04,0.0394,0.0395,0.0421,0.0415,0.0393,0.0392,0.0397,0.043,0.043,0.0434,0.0474,0.0446,0.0448,0.045,0.0451,0.0565,0.0566,0,0,0,0,0,0,0.0382,0.0379,0.0408,0.0409,0.0389,0.0396,0.0397,0.0402,0.0414,0.0415,0.0398,0.0396,0.0427,0.0431,0.0435,0.0498,0.0449,0.0451,0.0452,0.0563,0.0565,0.0567,0,0,0,0,0,0,0.0381,0.0384,0.0408,0.0396,0.0399,0.0398,0.0404,0.0403,0.0411,0.0417,0.0419,0.0409,0.0426,0.0432,0.0466,0.0498,0.0452,0.0454,0.0561,0.0564,0.0566,0.0607,0,0,0,0,0,0,0.038,0.0384,0.0391,0.0396,0.04,0.043,0.0405,0.0404,0.0416,0.0414,0.0427,0.043,0.0426,0.0462,0.0468,0.0501,0.0456,0.0559,0.0562,0.0565,0.0603,0.061,0.0616,0,0,0,0,0,0.0378,0.0398,0.0391,0.0395,0.0408,0.0432,0.0433,0.0428,0.0418,0.0431,0.0435,0.043,0.0485,0.0466,0.0472,0.0506,0.0558,0.0561,0.0565,0.0601,0.0609,0.0616,0,0,0,0,0,0,0.0385,0.0397,0.039,0.0412,0.0424,0.0429,0.0445,0.0439,0.0452,0.0452,0.0449,0.0453,0.0497,0.0499,0.0477,0.0548,0.0522,0.0527,0.0547,0.0555,0.0561,0.06,0.0458,0,0,0,0,0,0.0389,0.0407,0.0415,0.0434,0.0444,0.0445,0.0454,0.0453,0.0464,0.0468,0.0472,0.0488,0.0517,0.0531,0.0553,0.0593,0.0613,0.062,0.0627,0.0632,0.0669,0.074,0.0756,0.0578,0.0578,0.0578,0,0,0.0397,0.0407,0.0416,0.0437,0.0446,0.0475,0.0449,0.0473,0.0497,0.0474,0.0507,0.0513,0.0534,0.0575,0.0595,0.0579,0.0682,0.0636,0.064,0.0676,0.0745,0.0763,0.0778,0.0581,0.058,0.058,0,0,0.0431,0.0433,0.0461,0.0477,0.0498,0.0503,0.0515,0.0524,0.053,0.0558,0.0555,0.0586,0.0609,0.0639,0.0656,0.0717,0.0715,0.0714,0.0777,0.0844,0.086,0.0874,0.0873,0.0888,0.0714,0.0714,0.0714,0,0.0438,0.0475,0.0474,0.0508,0.053,0.0521,0.0561,0.0571,0.0587,0.0616,0.0575,0.0652,0.0649,0.0739,0.0744,0.0735,0.075,0.0741,0.0854,0.0869,0.0883,0.0879,0.0894,0.0717,0.0716,0.0716,0.0716,0,0.0496,0.0524,0.0547,0.0585,0.0607,0.0642,0.0656,0.0679,0.0675,0.0691,0.0761,0.0757,0.0812,0.0803,0.0786,0.0892,0.0858,0.0853,0.0834,0.0903,0.0894,0.0909,0.072,0.0719,0.0719,0.0718,0,0,0.0514,0.0575,0.0583,0.0614,0.0652,0.0678,0.0729,0.0786,0.0846,0.0843,0.0931,0.0947,0.0953,0.0975,0.0965,0.1006,0.1073,0.0969,0.0971,0.0967,0.1182,0.1085,0.1091,0.109,0.1094,0.1097,0.1117,0,0.0561,0.0636,0.0656,0.0727,0.0768,0.0786,0.0841,0.089,0.0924,0.1003,0.1023,0.1093,0.1018,0.105,0.1084,0.1093,0.1124,0.1066,0.1118,0.1119,0.1026,0.111,0.1049,0.1058,0.1131,0.1134,0.1136,0,0.0611,0.0657,0.0736,0.081,0.0832,0.0871,0.0972,0.1022,0.1128,0.116,0.1235,0.1256,0.1325,0.125,0.1303,0.1269,0.124,0.1224,0.1225,0.1146,0.1054,0.1013,0.1082,0.1072,0.1158,0.1157,0.1155,0,0.0631,0.0711,0.0777,0.0801,0.0885,0.0928,0.0975,0.1074,0.1156,0.1278,0.1357,0.1426,0.1466,0.1476,0.1409,0.1379,0.1453,0.1407,0.1291,0.128,0.1248,0.1229,0.1325,0.1473,0.1473,0.1473,0.1473,0,0.0676,0.0728,0.0789,0.0828,0.0919,0.0958,0.108,0.114,0.1276,0.1407,0.1444,0.1546,0.153,0.1556,0.1491,0.1427,0.1516,0.1335,0.1308,0.1251,0.1232,0.1236,0.1225,0.1473,0.1473,0.1473,0.1473,0,0.0703,0.0739,0.082,0.0905,0.0932,0.0999,0.1135,0.1239,0.1341,0.152,0.1572,0.1658,0.1668,0.1623,0.1617,0.1515,0.1451,0.1429,0.132,0.128,0.1137,0.1129,0.1204,0.1214,0.132,0.1318,0.1316,0,0.073,0.0775,0.0868,0.0921,0.0962,0.1061,0.115,0.1263,0.1384,0.1585,0.1682,0.1741,0.178,0.1699,0.1542,0.1421,0.1409,0.1277,0.1217,0.1155,0.1129,0.1132,0.1137,0.1167,0.1165,0.1162,0.1161,0,0.0795,0.0822,0.0889,0.0985,0.1069,0.1183,0.1307,0.1408,0.1568,0.1699,0.1845,0.1888,0.1785,0.1623,0.1428,0.1333,0.1258,0.1225,0.1237,0.1095,0.1038,0.1024,0.1078,0.1142,0.1143,0.1145,0.1146,0.1147,0.0842,0.0895,0.0971,0.1064,0.1167,0.1296,0.1387,0.1523,0.1689,0.1867,0.1907,0.1924,0.1717,0.1426,0.1314,0.1061,0.1113,0.0982,0.0995,0.1016,0.0997,0.0967,0.0951,0.0952,0.0953,0.0954,0.0954,0,0.089,0.0952,0.1047,0.1161,0.1273,0.1317,0.1495,0.1579,0.1737,0.1846,0.1929,0.1771,0.1543,0.1317,0.0991,0.0869,0.0861,0.0828,0.0858,0.089,0.093,0.0892,0.0774,0.0774,0.0774,0.0774,0.0774,0.0774,0.092,0.1001,0.1045,0.122,0.1309,0.1449,0.1541,0.1653,0.1733,0.1773,0.1716,0.1686,0.1522,0.1101,0.0855,0.0796,0.0815,0.0733,0.0806,0.0845,0.0862,0.0878,0.0844,0.0717,0.0717,0.0765,0.0765,0.0765]}],[{"header":{"parameterUnit":"m.s-1","parameterCategory":2,"la1":30.2991,"la2":30.254,"lo1":-89.0895,"lo2":-89.0444,"dy":0.0017,"dx":0.0017,"nx":28,"ny":28,"refTime":"2024-07-31T03:00:00:Z","depth":"2","parameterNumber":2,"parameterNumberName":"U-component_of_CURRENTS"},"data":[0,0,0,0,0,0,0,0,0,0,0,0,0,0,0,0,0,0,0,0,0,0,0,0,0,0,0,0,0,0,0,0,0,0,0,0,0,0,0,0,0,0,0,0,0,0,0,0,0,0,0,0,0,0,0,0,0,0,0.2024,0.2022,0,0.2079,0.2083,0.2086,0.2116,0.2113,0.211,0.2108,0.2155,0.2159,0.2163,0,0,0,0,0,0,0,0,0,0,0,0,0,0.2188,0.2186,0.2024,0.2022,0.2019,0.2079,0.2083,0.2087,0.2117,0.2113,0.211,0.2106,0.2154,0.2159,0.2163,0,0,0,0,0,0,0,0,0,0,0,0,0,0.2198,0.2186,0.2024,0.2017,0.2015,0.2078,0.2083,0.2088,0.2117,0.2113,0.2109,0.2105,0.2152,0.2158,0.2164,0.2289,0,0,0.2182,0.2185,0,0,0,0,0,0,0,0,0.2198,0.2197,0.2021,0.2017,0.2014,0.2057,0.2156,0.2143,0.2119,0.2113,0.2107,0.2102,0.2103,0.2113,0.2181,0.2291,0.2293,0.2183,0.2187,0.2189,0.2191,0,0,0,0,0,0,0,0.2197,0.2195,0.2079,0.2018,0.2014,0.2092,0.2091,0.2158,0.2158,0.2113,0.2107,0.2063,0.2106,0.2175,0.2181,0.2294,0.2183,0.2188,0.2192,0.2194,0.2446,0.2449,0,0,0,0,0,0,0.2115,0.2193,0.2077,0.2077,0.206,0.2089,0.2089,0.2075,0.2157,0.2156,0.2066,0.2063,0.2167,0.2174,0.2182,0.2274,0.2189,0.2195,0.2198,0.2443,0.2447,0.245,0,0,0,0,0,0,0.212,0.2106,0.2074,0.2109,0.2106,0.2086,0.2074,0.2078,0.2137,0.2115,0.212,0.2113,0.2164,0.2174,0.2262,0.2277,0.2197,0.2203,0.244,0.2444,0.2449,0.2494,0,0,0,0,0,0,0.2125,0.2109,0.2139,0.2104,0.2099,0.2101,0.2074,0.2081,0.2099,0.2098,0.2158,0.2158,0.2161,0.2254,0.2268,0.2283,0.2208,0.2436,0.2442,0.2447,0.2489,0.25,0.251,0,0,0,0,0,0.2132,0.2139,0.2141,0.2127,0.2119,0.2099,0.2112,0.2104,0.2105,0.2147,0.22,0.2156,0.2298,0.2264,0.2279,0.2296,0.2433,0.244,0.2447,0.2484,0.2498,0.2509,0,0,0,0,0,0,0.2198,0.2139,0.214,0.2125,0.2111,0.209,0.2116,0.2123,0.2211,0.2199,0.2227,0.2235,0.2302,0.232,0.2281,0.2388,0.2348,0.2358,0.2371,0.2384,0.2394,0.2398,0.2213,0,0,0,0,0,0.2229,0.2239,0.218,0.2173,0.2162,0.2163,0.2173,0.2147,0.217,0.2206,0.2258,0.2305,0.2356,0.2383,0.2429,0.2521,0.2533,0.2535,0.2545,0.2553,0.2571,0.2684,0.2705,0.2473,0.2473,0.2473,0,0,0.2228,0.2212,0.2204,0.2193,0.2191,0.2201,0.2168,0.2142,0.2196,0.2197,0.2334,0.2347,0.239,0.247,0.25,0.248,0.2611,0.2562,0.2569,0.2582,0.2693,0.2716,0.2736,0.2478,0.2477,0.2476,0,0,0.2224,0.2239,0.2246,0.2259,0.2223,0.2224,0.2214,0.2214,0.2271,0.2361,0.2375,0.2423,0.2518,0.256,0.2588,0.27,0.266,0.2686,0.2746,0.2856,0.2875,0.2893,0.286,0.2875,0.2694,0.2694,0.2694,0,0.2246,0.2228,0.2245,0.2269,0.2256,0.2235,0.2227,0.2317,0.2361,0.2403,0.2389,0.2529,0.2566,0.2665,0.27,0.272,0.2731,0.2686,0.2868,0.2886,0.2904,0.2866,0.2882,0.2697,0.2696,0.2696,0.2696,0,0.2238,0.2249,0.2245,0.2284,0.2311,0.2272,0.2329,0.2397,0.243,0.2478,0.2574,0.2648,0.2714,0.2729,0.2756,0.2886,0.2829,0.2861,0.2828,0.2929,0.2883,0.2898,0.2701,0.27,0.2699,0.2698,0,0,0.2211,0.2228,0.2238,0.2263,0.2288,0.2303,0.2399,0.2453,0.253,0.2599,0.2694,0.2798,0.2805,0.2844,0.2876,0.2976,0.309,0.2978,0.2982,0.2927,0.3235,0.2946,0.2933,0.3162,0.3167,0.3171,0.3122,0,0.2188,0.2207,0.2229,0.2274,0.2275,0.2316,0.2435,0.2512,0.2579,0.2703,0.2764,0.2875,0.2868,0.2901,0.3002,0.3097,0.3147,0.3094,0.3162,0.3161,0.2881,0.295,0.2751,0.2672,0.3137,0.314,0.3141,0,0.2185,0.2192,0.2189,0.227,0.2281,0.2341,0.246,0.2558,0.2713,0.2778,0.285,0.2907,0.3055,0.3051,0.3221,0.3188,0.3216,0.326,0.326,0.2994,0.2905,0.2666,0.2682,0.3167,0.3165,0.3163,0.3161,0,0.2169,0.2193,0.218,0.2201,0.2284,0.2337,0.2414,0.2561,0.267,0.2839,0.2881,0.3035,0.3105,0.3231,0.3279,0.329,0.3421,0.3447,0.3176,0.315,0.2994,0.2946,0.3556,0.3556,0.3556,0.3556,0.3556,0,0.2151,0.2176,0.2183,0.2198,0.2274,0.2349,0.2463,0.2583,0.2725,0.2805,0.2931,0.2977,0.3172,0.3231,0.3303,0.3242,0.3433,0.318,0.3147,0.2989,0.2943,0.3407,0.339,0.3554,0.3555,0.3555,0.3555,0,0.2168,0.2156,0.2182,0.2231,0.2269,0.2357,0.2511,0.2578,0.2723,0.2819,0.2873,0.2989,0.3016,0.3103,0.3255,0.3203,0.3237,0.3154,0.2862,0.2793,0.2874,0.2862,0.2871,0.2861,0.2852,0.2845,0.2839,0,0.2146,0.2132,0.22,0.2231,0.2263,0.237,0.2424,0.2594,0.2639,0.2772,0.2786,0.2832,0.2788,0.2824,0.2795,0.2779,0.2956,0.254,0.2533,0.2851,0.282,0.282,0.2818,0.2327,0.2317,0.231,0.2303,0,0.2099,0.2137,0.2159,0.222,0.2284,0.2348,0.2428,0.2475,0.2591,0.2629,0.2622,0.2602,0.2511,0.2361,0.2279,0.227,0.2539,0.2363,0.2875,0.249,0.2324,0.2297,0.2318,0.2233,0.224,0.2245,0.2249,0.2252,0.2078,0.2098,0.2136,0.2166,0.2256,0.23,0.2294,0.2316,0.236,0.2321,0.2374,0.2227,0.218,0.1908,0.1833,0.1776,0.1954,0.193,0.1963,0.2003,0.1907,0.1733,0.1506,0.1508,0.1511,0.1513,0.1515,0,0.2006,0.2038,0.2063,0.2116,0.2118,0.2228,0.2241,0.2154,0.2068,0.2047,0.1968,0.1717,0.1541,0.1518,0.1299,0.1238,0.1346,0.1201,0.1376,0.1441,0.1501,0.1392,0.0848,0.0846,0.0844,0.0843,0,0,0.2005,0.1987,0.1947,0.1914,0.1952,0.1934,0.191,0.181,0.1763,0.1602,0.148,0.1489,0.1477,0.1174,0.1093,0.0941,0.1211,0.0897,0.143,0.1705,0.1764,0.1902,0.18,0,0,0,0,0]},{"header":{"parameterUnit":"m.s-1","parameterCategory":2,"la1":30.2991,"la2":30.254,"lo1":-89.0895,"lo2":-89.0444,"dy":0.0017,"dx":0.0017,"nx":28,"ny":28,"refTime":"2024-07-31T03:00:00:Z","depth":"2","parameterNumber":3,"parameterNumberName":"V-component_of_CURRENTS"},"data":[0,0,0,0,0,0,0,0,0,0,0,0,0,0,0,0,0,0,0,0,0,0,0,0,0,0,0,0,0,0,0,0,0,0,0,0,0,0,0,0,0,0,0,0,0,0,0,0,0,0,0,0,0,0,0,0,0,0,0.0074,0.0074,0,0.0054,0.0053,0.0053,0.0024,0.0023,0.0023,0.0022,0.0027,0.0028,0.0028,0,0,0,0,0,0,0,0,0,0,0,0,0,0.0088,0.0088,0.0074,0.0073,0.0073,0.0054,0.0053,0.0053,0.0024,0.0023,0.0023,0.0022,0.0027,0.0028,0.0028,0,0,0,0,0,0,0,0,0,0,0,0,0,0.0076,0.0088,0.0074,0.0057,0.0055,0.0054,0.0053,0.0053,0.0024,0.0023,0.0022,0.0022,0.0027,0.0028,0.0028,0.0047,0,0,0.0031,0.0031,0,0,0,0,0,0,0,0,0.0077,0.0075,0.0059,0.0058,0.0056,0.0041,0.006,0.0053,0.0024,0.0035,0.0022,0.0021,0.0035,0.0035,0.0032,0.0048,0.0048,0.0031,0.0032,0.0032,0.0032,0,0,0,0,0,0,0,0.0078,0.0076,0.0065,0.0059,0.0057,0.0051,0.0048,0.0059,0.0039,0.0034,0.0032,0.0031,0.0034,0.0031,0.0032,0.0048,0.0031,0.0032,0.0032,0.0033,0.0094,0.0095,0,0,0,0,0,0,0.0082,0.0077,0.0066,0.0065,0.0066,0.0051,0.0048,0.0046,0.0038,0.0037,0.0032,0.003,0.003,0.0031,0.0032,0.0085,0.0032,0.0033,0.0033,0.0093,0.0094,0.0095,0,0,0,0,0,0,0.0082,0.0081,0.0067,0.0071,0.0069,0.0052,0.0049,0.0046,0.0042,0.0036,0.0035,0.0032,0.0029,0.0031,0.0059,0.0084,0.0033,0.0034,0.0091,0.0093,0.0094,0.0171,0,0,0,0,0,0,0.0083,0.0081,0.0085,0.0071,0.0069,0.006,0.005,0.0046,0.0043,0.0041,0.0036,0.0036,0.0029,0.0058,0.006,0.0084,0.0034,0.009,0.0092,0.0094,0.0167,0.0175,0.0182,0,0,0,0,0,0.0083,0.0094,0.0085,0.0084,0.0073,0.006,0.0058,0.0043,0.0044,0.0039,0.0056,0.0036,0.0072,0.006,0.0062,0.0087,0.0089,0.0091,0.0094,0.0164,0.0174,0.0182,0,0,0,0,0,0,0.0101,0.0092,0.0082,0.0088,0.0071,0.0055,0.006,0.0049,0.0057,0.0063,0.0059,0.006,0.009,0.0079,0.0067,0.0109,0.0074,0.0077,0.0126,0.0135,0.0143,0.017,0.0035,0,0,0,0,0,0.0108,0.0114,0.0094,0.0099,0.0095,0.0079,0.0076,0.0062,0.0065,0.0066,0.0071,0.0082,0.0102,0.0112,0.0118,0.0149,0.0143,0.0162,0.017,0.0176,0.02,0.0221,0.0233,0.0103,0.0103,0.0103,0,0,0.0114,0.0113,0.0114,0.0103,0.0097,0.0092,0.0075,0.0071,0.0078,0.0069,0.0097,0.0108,0.0116,0.015,0.0161,0.0145,0.0205,0.018,0.0185,0.0205,0.0225,0.0238,0.0249,0.0105,0.0105,0.0104,0,0,0.0138,0.0132,0.0145,0.0133,0.0123,0.0109,0.0109,0.0097,0.0104,0.0127,0.0132,0.0168,0.018,0.0205,0.0217,0.0271,0.0242,0.026,0.0327,0.0347,0.0358,0.0368,0.0359,0.0367,0.0267,0.0267,0.0267,0,0.0145,0.0156,0.0145,0.0152,0.0147,0.012,0.0123,0.0127,0.0128,0.0169,0.0141,0.0219,0.0212,0.029,0.0305,0.029,0.0287,0.0294,0.0359,0.0368,0.0377,0.0365,0.0373,0.0271,0.027,0.027,0.0269,0,0.0175,0.0179,0.0188,0.0186,0.0178,0.0175,0.0168,0.018,0.0187,0.0218,0.0293,0.0298,0.0355,0.0348,0.0343,0.0415,0.0386,0.0364,0.0339,0.0395,0.0378,0.0385,0.0276,0.0275,0.0274,0.0273,0,0,0.0197,0.0206,0.0207,0.0212,0.0193,0.0192,0.0213,0.0249,0.0314,0.0323,0.0423,0.0446,0.0482,0.0497,0.0497,0.0511,0.0552,0.0471,0.047,0.0467,0.0582,0.0492,0.049,0.0544,0.0546,0.0548,0.0538,0,0.0219,0.0241,0.0238,0.025,0.0253,0.0242,0.0275,0.0312,0.0361,0.0456,0.0498,0.0587,0.053,0.0577,0.0585,0.0568,0.0579,0.0556,0.0524,0.0523,0.0441,0.0499,0.0512,0.0499,0.0545,0.0546,0.0547,0,0.0244,0.0255,0.0273,0.0296,0.0301,0.0306,0.0371,0.0402,0.0526,0.0579,0.0677,0.0735,0.0793,0.0727,0.072,0.0709,0.0662,0.0627,0.0625,0.0526,0.0448,0.0454,0.0511,0.0559,0.0558,0.0557,0.0557,0,0.0265,0.028,0.0299,0.0298,0.0319,0.0341,0.0357,0.0454,0.0541,0.0681,0.0785,0.0853,0.0902,0.0862,0.0792,0.077,0.0765,0.072,0.0595,0.0586,0.0584,0.0572,0.0728,0.0728,0.0728,0.0728,0.0728,0,0.0286,0.0303,0.0311,0.032,0.0367,0.0369,0.0467,0.0508,0.0647,0.0794,0.0862,0.0973,0.094,0.095,0.0854,0.074,0.0807,0.0626,0.0592,0.0606,0.0596,0.0638,0.0628,0.0727,0.0727,0.0728,0.0728,0,0.031,0.0315,0.0339,0.0362,0.0377,0.0409,0.0512,0.0615,0.0714,0.0903,0.0966,0.108,0.1047,0.0991,0.0918,0.0813,0.0718,0.0662,0.0662,0.0627,0.0508,0.0502,0.0529,0.0526,0.0524,0.0522,0.052,0,0.0325,0.0339,0.0368,0.0399,0.041,0.0467,0.0539,0.0634,0.0774,0.096,0.108,0.1122,0.1153,0.0996,0.0832,0.0659,0.0656,0.0559,0.0513,0.0531,0.0495,0.0493,0.049,0.0539,0.0538,0.0536,0.0535,0,0.0352,0.0363,0.0388,0.0451,0.0509,0.0598,0.0711,0.083,0.0978,0.1108,0.1251,0.1273,0.1134,0.0964,0.0729,0.0613,0.0582,0.0523,0.0593,0.0565,0.0534,0.0499,0.0499,0.0525,0.0526,0.0527,0.0527,0.0528,0.038,0.0405,0.045,0.0516,0.0601,0.074,0.0825,0.097,0.1141,0.1313,0.1311,0.1286,0.114,0.0789,0.0628,0.0458,0.0457,0.0402,0.041,0.0418,0.0399,0.0362,0.0317,0.0317,0.0317,0.0317,0.0317,0,0.0416,0.0463,0.0521,0.0619,0.0735,0.0766,0.0964,0.1051,0.1223,0.1295,0.1334,0.1134,0.0956,0.0772,0.0508,0.0352,0.0379,0.0301,0.0388,0.0398,0.0407,0.0391,0.0306,0.0306,0.0305,0.0305,0,0,0.0446,0.0509,0.0541,0.0724,0.0808,0.0956,0.1063,0.1166,0.1243,0.1261,0.1217,0.1151,0.0968,0.0772,0.0586,0.0447,0.0457,0.0414,0.0437,0.0572,0.0584,0.0475,0.0462,0,0,0,0,0]}],[{"header":{"parameterUnit":"m.s-1","parameterCategory":2,"la1":30.2991,"la2":30.254,"lo1":-89.0895,"lo2":-89.0444,"dy":0.0017,"dx":0.0017,"nx":28,"ny":28,"refTime":"2024-07-31T03:00:00:Z","depth":"4","parameterNumber":2,"parameterNumberName":"U-component_of_CURRENTS"},"data":[0,0,0,0,0,0,0,0,0,0,0,0,0,0,0,0,0,0,0,0,0,0,0,0,0,0,0,0,0,0,0,0,0,0,0,0,0,0,0,0,0,0,0,0,0,0,0,0,0,0,0,0,0,0,0,0,0,0,0.0894,0.0895,0,0.0877,0.0876,0.0875,0.086,0.0861,0.0862,0.0862,0.0907,0.0907,0.0908,0,0,0,0,0,0,0,0,0,0,0,0,0,0.0937,0.0935,0.0894,0.0895,0.0896,0.0878,0.0876,0.0875,0.086,0.0861,0.0862,0.0863,0.0907,0.0907,0.0908,0,0,0,0,0,0,0,0,0,0,0,0,0,0.091,0.0935,0.0894,0.0893,0.0893,0.0878,0.0876,0.0875,0.086,0.0861,0.0862,0.0863,0.0906,0.0907,0.0908,0.0892,0,0,0.091,0.0911,0,0,0,0,0,0,0,0,0.0911,0.0907,0.0893,0.0893,0.0894,0.0881,0.0908,0.0887,0.086,0.0862,0.0862,0.0864,0.0909,0.091,0.089,0.0894,0.0896,0.091,0.0911,0.0911,0.0911,0,0,0,0,0,0,0,0.0913,0.0908,0.0878,0.0893,0.0894,0.0902,0.0898,0.0903,0.0874,0.0862,0.0864,0.0877,0.0909,0.0889,0.0891,0.0896,0.091,0.0911,0.0912,0.0912,0.097,0.0971,0,0,0,0,0,0,0.0932,0.0909,0.0878,0.0878,0.0916,0.0901,0.0896,0.0876,0.0872,0.0875,0.0876,0.0876,0.0887,0.089,0.0893,0.0971,0.0911,0.0912,0.0912,0.0969,0.0971,0.0972,0,0,0,0,0,0,0.0932,0.0928,0.0879,0.0904,0.0899,0.09,0.0877,0.0875,0.089,0.0884,0.0886,0.0898,0.0888,0.0892,0.093,0.0969,0.0912,0.0913,0.0968,0.097,0.0971,0.1065,0,0,0,0,0,0,0.0933,0.0927,0.0924,0.0903,0.0899,0.0886,0.0877,0.0874,0.0899,0.09,0.0903,0.0906,0.0889,0.0929,0.093,0.0969,0.0914,0.0967,0.0969,0.0971,0.1061,0.107,0.1078,0,0,0,0,0,0.0934,0.0928,0.0923,0.0921,0.0891,0.0887,0.0884,0.0884,0.09,0.0901,0.0917,0.0907,0.0942,0.093,0.0932,0.0972,0.0966,0.0968,0.0971,0.1057,0.1068,0.1077,0,0,0,0,0,0,0.0953,0.0927,0.092,0.0909,0.0908,0.0889,0.0902,0.0905,0.0914,0.093,0.0924,0.0928,0.0986,0.0957,0.0944,0.0992,0.0951,0.0954,0.1016,0.1027,0.1035,0.1028,0.0914,0,0,0,0,0,0.0955,0.0943,0.0925,0.0925,0.0925,0.092,0.0925,0.0925,0.0932,0.0937,0.0942,0.0954,0.0988,0.0992,0.1008,0.1025,0.1007,0.1049,0.1057,0.1065,0.1059,0.1085,0.1096,0.098,0.098,0.098,0,0,0.0971,0.0955,0.0953,0.093,0.0929,0.0906,0.0924,0.0941,0.0933,0.0944,0.0951,0.1,0.1006,0.104,0.1059,0.1023,0.1086,0.1068,0.1075,0.1064,0.1089,0.11,0.111,0.0981,0.0981,0.0981,0,0,0.0983,0.0976,0.0961,0.0949,0.0954,0.0937,0.0953,0.0947,0.0959,0.0972,0.1006,0.1072,0.1073,0.1101,0.1113,0.1171,0.1151,0.1185,0.1202,0.1229,0.1239,0.1247,0.1232,0.1239,0.1165,0.1165,0.1165,0,0.1002,0.0964,0.0965,0.0939,0.0932,0.0952,0.0929,0.0935,0.0947,0.099,0.0982,0.1082,0.1094,0.1174,0.1194,0.1193,0.1192,0.1169,0.1241,0.1249,0.1256,0.1239,0.1245,0.117,0.1169,0.1169,0.1168,0,0.098,0.0957,0.0958,0.0911,0.0904,0.0902,0.09,0.0922,0.0949,0.0982,0.109,0.1121,0.1191,0.1209,0.1214,0.1297,0.1276,0.1273,0.1219,0.1274,0.1252,0.1256,0.1177,0.1175,0.1174,0.1172,0,0,0.0993,0.0945,0.0947,0.0913,0.089,0.0876,0.0888,0.0919,0.0969,0.1015,0.1103,0.1174,0.1263,0.1282,0.1331,0.1335,0.1389,0.1325,0.1324,0.1315,0.143,0.1332,0.1326,0.1414,0.1416,0.1417,0.1392,0,0.0974,0.0916,0.0901,0.0851,0.0813,0.0831,0.0839,0.0886,0.0951,0.1045,0.1154,0.1266,0.1271,0.1353,0.1369,0.1393,0.1407,0.1394,0.1372,0.137,0.1282,0.1331,0.1422,0.1395,0.1396,0.1397,0.1397,0,0.0938,0.0902,0.0849,0.0808,0.0801,0.0785,0.0827,0.0847,0.0999,0.1071,0.1221,0.134,0.1435,0.1426,0.1459,0.1458,0.1461,0.1446,0.1446,0.1321,0.1281,0.1329,0.1405,0.1404,0.1403,0.1403,0.1402,0,0.0912,0.0859,0.0817,0.0797,0.0763,0.0775,0.0784,0.0885,0.0945,0.1142,0.1245,0.1377,0.1477,0.1483,0.1493,0.1495,0.1491,0.1486,0.1396,0.1387,0.1441,0.1432,0.1521,0.1521,0.1521,0.1521,0.1521,0,0.0861,0.0824,0.0809,0.0777,0.0758,0.0761,0.0803,0.0855,0.0996,0.1108,0.1294,0.1405,0.1503,0.1548,0.1514,0.1448,0.1512,0.14,0.1383,0.1478,0.1474,0.1443,0.1435,0.152,0.1521,0.1521,0.1521,0,0.0805,0.0798,0.0741,0.0729,0.0735,0.0728,0.0783,0.0834,0.0979,0.1135,0.1227,0.1437,0.1483,0.1524,0.153,0.1473,0.1415,0.1391,0.1468,0.1455,0.1285,0.1282,0.1274,0.127,0.1267,0.1265,0.1263,0,0.0758,0.0725,0.0709,0.0696,0.0687,0.0699,0.072,0.082,0.0898,0.1133,0.1216,0.138,0.1497,0.141,0.1432,0.1353,0.135,0.1318,0.1324,0.128,0.1265,0.1266,0.1266,0.1258,0.1257,0.1256,0.1256,0,0.0665,0.0679,0.064,0.0623,0.0625,0.0642,0.07,0.0748,0.0907,0.1046,0.1211,0.13,0.136,0.1361,0.133,0.1272,0.1324,0.1287,0.1293,0.1299,0.1261,0.1249,0.1253,0.1245,0.1247,0.1248,0.1248,0,0.0617,0.0576,0.0556,0.0529,0.0544,0.0593,0.0623,0.0717,0.0804,0.1071,0.1101,0.1248,0.1362,0.1318,0.1263,0.1215,0.1198,0.1161,0.1174,0.1185,0.1164,0.1105,0.1026,0,0,0,0,0,0.0577,0.0523,0.0469,0.0453,0.0476,0.0518,0.0612,0.067,0.083,0.0918,0.1017,0.1078,0.1113,0.1164,0.1089,0.117,0.116,0.1075,0.1115,0.1188,0.12,0.1182,0,0,0,0,0,0,0.0544,0.0494,0.0437,0.0406,0.0416,0.0464,0.0541,0.0653,0.0711,0.0877,0.0888,0.1012,0.1027,0.1143,0.1076,0.1078,0.1078,0.1131,0.1128,0.1182,0.1192,0.1202,0.1188,0,0,0,0,0]},{"header":{"parameterUnit":"m.s-1","parameterCategory":2,"la1":30.2991,"la2":30.254,"lo1":-89.0895,"lo2":-89.0444,"dy":0.0017,"dx":0.0017,"nx":28,"ny":28,"refTime":"2024-07-31T03:00:00:Z","depth":"4","parameterNumber":3,"parameterNumberName":"V-component_of_CURRENTS"},"data":[0,0,0,0,0,0,0,0,0,0,0,0,0,0,0,0,0,0,0,0,0,0,0,0,0,0,0,0,0,0,0,0,0,0,0,0,0,0,0,0,0,0,0,0,0,0,0,0,0,0,0,0,0,0,0,0,0,0,0.0096,0.0096,0,0.0077,0.0076,0.0076,0.0073,0.0074,0.0074,0.0075,0.0098,0.0098,0.0098,0,0,0,0,0,0,0,0,0,0,0,0,0,0.0078,0.0078,0.0096,0.0096,0.0096,0.0077,0.0076,0.0076,0.0073,0.0074,0.0074,0.0075,0.0098,0.0098,0.0098,0,0,0,0,0,0,0,0,0,0,0,0,0,0.0072,0.0078,0.0096,0.0095,0.0095,0.0077,0.0076,0.0076,0.0073,0.0074,0.0074,0.0075,0.0098,0.0098,0.0098,0.0084,0,0,0.0099,0.0099,0,0,0,0,0,0,0,0,0.0072,0.0072,0.0095,0.0095,0.0095,0.0081,0.0079,0.0082,0.0073,0.0077,0.0075,0.0075,0.0098,0.0098,0.0087,0.0085,0.0086,0.0099,0.0099,0.0099,0.0099,0,0,0,0,0,0,0,0.0072,0.0072,0.0084,0.0095,0.0095,0.0078,0.0078,0.0079,0.0082,0.0077,0.0078,0.0081,0.0098,0.0087,0.0088,0.0087,0.0099,0.0099,0.0099,0.0099,0.0097,0.0097,0,0,0,0,0,0,0.0084,0.0073,0.0085,0.0084,0.0089,0.0078,0.0078,0.0082,0.0081,0.0082,0.0081,0.0081,0.0086,0.0088,0.0089,0.0111,0.0099,0.0099,0.0099,0.0097,0.0097,0.0097,0,0,0,0,0,0,0.0084,0.0085,0.0086,0.0081,0.0081,0.0079,0.0082,0.0081,0.0079,0.0084,0.0085,0.0082,0.0087,0.0089,0.0099,0.011,0.0099,0.01,0.0098,0.0097,0.0097,0.013,0,0,0,0,0,0,0.0083,0.0085,0.0091,0.0082,0.0081,0.0081,0.0082,0.008,0.0082,0.0082,0.0085,0.0087,0.0088,0.0099,0.0099,0.0111,0.01,0.0098,0.0098,0.0097,0.0129,0.0131,0.0133,0,0,0,0,0,0.0083,0.0088,0.0091,0.0093,0.009,0.0081,0.0078,0.0077,0.0081,0.0078,0.0085,0.0088,0.0097,0.0099,0.0099,0.0111,0.0098,0.0098,0.0097,0.0129,0.0131,0.0133,0,0,0,0,0,0,0.0079,0.0088,0.0092,0.0099,0.0094,0.0082,0.0083,0.008,0.0079,0.0085,0.0088,0.009,0.0103,0.0097,0.0099,0.0107,0.0096,0.0096,0.012,0.0122,0.0124,0.0131,0.01,0,0,0,0,0,0.0083,0.0091,0.0092,0.0096,0.0098,0.0091,0.0089,0.0085,0.0085,0.0085,0.0091,0.0094,0.0097,0.0104,0.0103,0.0109,0.0084,0.0114,0.0116,0.0117,0.0122,0.007,0.0067,0.0096,0.0096,0.0096,0,0,0.0084,0.0089,0.0094,0.0096,0.0094,0.0101,0.0091,0.0089,0.0098,0.0089,0.0107,0.0102,0.0099,0.0108,0.0112,0.0109,0.0099,0.0117,0.0118,0.0122,0.0069,0.0066,0.0064,0.0095,0.0095,0.0096,0,0,0.0088,0.0095,0.0106,0.0106,0.0109,0.0105,0.0108,0.0104,0.0109,0.0116,0.0115,0.0114,0.0122,0.012,0.0121,0.0127,0.0108,0.013,0.015,0.0099,0.0096,0.0093,0.0072,0.0067,0.0132,0.0133,0.0133,0,0.009,0.0107,0.0104,0.0115,0.0126,0.0113,0.0128,0.0125,0.0124,0.0135,0.0129,0.0132,0.0126,0.0138,0.014,0.0133,0.0109,0.0146,0.0101,0.0098,0.0094,0.0073,0.0067,0.0134,0.0134,0.0134,0.0134,0,0.0105,0.0121,0.0127,0.0144,0.0149,0.0156,0.0161,0.0167,0.0172,0.0169,0.0181,0.0163,0.0168,0.016,0.0155,0.0139,0.0132,0.0108,0.0098,0.0094,0.0072,0.0065,0.0136,0.0136,0.0135,0.0135,0,0,0.0108,0.0135,0.0139,0.0161,0.0169,0.0177,0.0197,0.0213,0.023,0.022,0.0245,0.0227,0.0215,0.0213,0.02,0.0155,0.011,0.0126,0.0123,0.011,0.0017,0.0044,0.004,0.0075,0.0073,0.0072,0.0017,0,0.0126,0.0159,0.0167,0.0203,0.0225,0.0231,0.0254,0.0263,0.0264,0.028,0.0261,0.0274,0.0238,0.0245,0.0193,0.0115,0.0092,0.0129,0.002,0.0017,0.0045,0.0032,0.0068,0.0012,0.001,0.0009,0.0008,0,0.0142,0.0167,0.021,0.0252,0.0264,0.0283,0.0322,0.0341,0.0352,0.0352,0.0347,0.0336,0.029,0.0263,0.0129,0.0152,0.0102,0.0043,0.0038,0.0048,0.0031,0.0012,-0.0005,-0.0004,-0.0003,-0.0002,-0.0001,0,0.0156,0.0198,0.0241,0.0255,0.0296,0.0324,0.035,0.0366,0.0393,0.0406,0.0417,0.0359,0.0342,0.0235,0.0116,0.0119,-0.0034,-0.0046,-0.0054,-0.0051,-0.0073,-0.007,-0.0105,-0.0105,-0.0105,-0.0105,-0.0104,0,0.0177,0.021,0.0255,0.0279,0.0336,0.0357,0.0411,0.0424,0.0452,0.0482,0.0462,0.0462,0.033,0.0239,0.0125,0.0001,-0.003,-0.0048,-0.0069,-0.0056,-0.005,-0.0077,-0.0073,-0.0107,-0.0106,-0.0106,-0.0105,0,0.0188,0.0216,0.0267,0.0322,0.0346,0.039,0.0458,0.0489,0.051,0.0549,0.0564,0.0521,0.0397,0.0268,0.0094,0.0028,-0.0103,-0.0115,-0.0076,-0.0095,-0.0079,-0.0073,-0.0134,-0.0134,-0.0134,-0.0133,-0.0133,0,0.02,0.0227,0.0297,0.0337,0.0368,0.0436,0.048,0.0517,0.0546,0.0575,0.059,0.0529,0.0482,0.0251,0.0108,-0.0083,-0.0089,-0.0131,-0.0111,-0.007,-0.0085,-0.008,-0.0074,-0.0133,-0.0133,-0.0133,-0.0132,0,0.0217,0.0241,0.028,0.0356,0.0413,0.0488,0.0549,0.0566,0.0609,0.063,0.0616,0.055,0.0437,0.0265,0.0135,-0.0006,-0.0114,-0.0128,-0.0129,-0.011,-0.0069,-0.0083,-0.0078,-0.0131,-0.0132,-0.0132,-0.0132,0,0.0225,0.0248,0.0296,0.0372,0.0442,0.0512,0.0548,0.0585,0.0617,0.0639,0.0624,0.0529,0.0474,0.0308,0.016,0.004,0.0027,0.0006,-0.0002,-0.0005,0.0049,0.0121,0.0099,0,0,0,0,0,0.0231,0.0256,0.0312,0.0383,0.0456,0.0513,0.0581,0.0609,0.0634,0.063,0.0634,0.0535,0.0383,0.0309,0.0194,0.0158,-0.0008,0.0022,-0.0041,-0.0125,-0.0127,-0.0084,0,0,0,0,0,0,0.0232,0.027,0.0298,0.0384,0.0444,0.0528,0.0577,0.0606,0.06,0.0612,0.0516,0.0524,0.0346,0.0437,0.0193,0.0162,0.0114,-0.0045,-0.0046,-0.0125,-0.0126,-0.0127,-0.0083,0,0,0,0,0]}]]